When you browse on this site, cookies collect data to enhance your experience and personalize the content and advertising you see.
Visit our Privacy Policy to learn more. By continuing to use the site, you agree to this use of cookies and data.
  • In Austria
  • List of Countries
  • For 7 days
  • Water Temperature
  • Weather Map
  • News
  • Weather Widgets
  • user-avatar
    Login

    Hourly Weather Setubal

    Today, 18 September, Wednesday

    Time Temperature Precipitation Wind Pressure Humidity
    00:00 +16°C° 0 mm 1 mps 755 mmHg 90%
    01:00 +16°C° 0 mm 1 mps 755 mmHg 91%
    02:00 +16°C° 0 mm 1 mps 755 mmHg 91%
    03:00 +16°C° 0 mm 1 mps 755 mmHg 91%
    04:00 +16°C° 0 mm 1 mps 755 mmHg 91%
    05:00 +15°C° 0 mm 1 mps 756 mmHg 92%
    06:00 +19°C° 0 mm 1 mps 756 mmHg 82%
    07:00 +21°C° 0 mm 1 mps 756 mmHg 73%
    08:00 +21°C° 0 mm 0 mps 756 mmHg 64%
    09:00 +25°C° 0 mm 1 mps 756 mmHg 57%
    10:00 +26°C° 0 mm 2 mps 756 mmHg 51%
    11:00 +28°C° 0 mm 3 mps 756 mmHg 45%
    12:00 +28°C° 0 mm 3 mps 756 mmHg 46%
    13:00 +27°C° 0 mm 4 mps 756 mmHg 47%
    14:00 +27°C° 0 mm 4 mps 756 mmHg 48%
    15:00 +26°C° 0 mm 4 mps 756 mmHg 53%
    16:00 +25°C° 0 mm 5 mps 756 mmHg 59%
    17:00 +22°C° 0 mm 5 mps 756 mmHg 64%
    18:00 +21°C° 0 mm 4 mps 756 mmHg 71%
    19:00 +19°C° 0 mm 4 mps 757 mmHg 79%
    20:00 +18°C° 0 mm 3 mps 757 mmHg 86%
    21:00 +17°C° 0 mm 3 mps 757 mmHg 88%
    22:00 +17°C° 0 mm 3 mps 757 mmHg 90%
    23:00 +16°C° 0 mm 2 mps 757 mmHg 91%

    Tomorrow, 19 September, Thursday

    Time Temperature Precipitation Wind Pressure Humidity
    00:00 +16°C° 0 mm 2 mps 757 mmHg 91%
    01:00 +16°C° 0 mm 1 mps 756 mmHg 92%
    02:00 +16°C° 0 mm 1 mps 756 mmHg 92%
    03:00 +16°C° 0 mm 1 mps 756 mmHg 92%
    04:00 +16°C° 0 mm 1 mps 756 mmHg 92%
    05:00 +15°C° 0 mm 1 mps 756 mmHg 93%
    06:00 +18°C° 0 mm 1 mps 757 mmHg 85%
    07:00 +20°C° 0 mm 1 mps 757 mmHg 77%
    08:00 +22°C° 0 mm 1 mps 757 mmHg 69%
    09:00 +24°C° 0 mm 1 mps 757 mmHg 61%
    10:00 +26°C° 0 mm 2 mps 757 mmHg 53%
    11:00 +28°C° 0 mm 3 mps 757 mmHg 45%
    12:00 +28°C° 0 mm 4 mps 756 mmHg 45%
    13:00 +28°C° 0 mm 4 mps 756 mmHg 45%
    14:00 +28°C° 0 mm 5 mps 756 mmHg 46%
    15:00 +26°C° 0 mm 5 mps 755 mmHg 53%
    16:00 +25°C° 0 mm 5 mps 755 mmHg 59%
    17:00 +22°C° 0 mm 5 mps 755 mmHg 66%
    18:00 +21°C° 0 mm 4 mps 756 mmHg 74%
    19:00 +19°C° 0 mm 4 mps 756 mmHg 82%
    20:00 +18°C° 0 mm 3 mps 757 mmHg 90%
    21:00 +17°C° 0 mm 3 mps 756 mmHg 92%
    22:00 +17°C° 0 mm 2 mps 756 mmHg 93%
    23:00 +17°C° 0 mm 2 mps 755 mmHg 94%

    Day after tomorrow, 20 September, Friday

    Time Temperature Precipitation Wind Pressure Humidity
    00:00 +17°C° 0 mm 2 mps 755 mmHg 94%
    01:00 +17°C° 0 mm 2 mps 755 mmHg 94%
    02:00 +18°C° 0 mm 1 mps 755 mmHg 94%
    03:00 +18°C° 0 mm 1 mps 755 mmHg 94%
    04:00 +18°C° 0 mm 1 mps 754 mmHg 93%
    05:00 +16°C° 0 mm 0 mps 754 mmHg 93%
    06:00 +17°C° 0 mm 0 mps 754 mmHg 89%
    07:00 +20°C° 0 mm 1 mps 755 mmHg 84%
    08:00 +21°C° 0 mm 1 mps 755 mmHg 79%
    09:00 +22°C° 0 mm 1 mps 755 mmHg 74%
    10:00 +21°C° 0 mm 2 mps 755 mmHg 69%
    11:00 +23°C° 0 mm 2 mps 755 mmHg 64%
    12:00 +24°C° 0 mm 3 mps 754 mmHg 59%
    13:00 +25°C° 0 mm 3 mps 754 mmHg 53%
    14:00 +27°C° 0 mm 4 mps 754 mmHg 48%
    15:00 +25°C° 0 mm 4 mps 753 mmHg 54%
    16:00 +23°C° 0 mm 4 mps 753 mmHg 61%
    17:00 +22°C° 0 mm 4 mps 753 mmHg 67%
    18:00 +21°C° 0 mm 3 mps 753 mmHg 76%
    19:00 +19°C° 0 mm 3 mps 754 mmHg 85%
    20:00 +18°C° 0 mm 3 mps 754 mmHg 94%
    21:00 +18°C° 0 mm 3 mps 753 mmHg 95%
    22:00 +18°C° 0 mm 3 mps 753 mmHg 96%
    23:00 +18°C° 0 mm 4 mps 752 mmHg 96%

    21 September, Saturday

    Time Temperature Precipitation Wind Pressure Humidity
    00:00 +19°C° 0 mm 4 mps 752 mmHg 96%
    01:00 +19°C° 0 mm 4 mps 752 mmHg 95%
    02:00 +19°C° 0 mm 4 mps 752 mmHg 95%
    03:00 +20°C° 0.2 mm 4 mps 752 mmHg 94%
    04:00 +20°C° 0.2 mm 5 mps 751 mmHg 93%
    05:00 +20°C° 0.2 mm 5 mps 751 mmHg 92%
    06:00 +20°C° 1.3 mm 5 mps 751 mmHg 91%
    07:00 +20°C° 1.3 mm 6 mps 751 mmHg 91%
    08:00 +20°C° 1.3 mm 6 mps 752 mmHg 90%
    09:00 +21°C° 1.5 mm 7 mps 751 mmHg 89%
    10:00 +21°C° 1.5 mm 7 mps 751 mmHg 89%
    11:00 +21°C° 1.5 mm 8 mps 751 mmHg 88%
    12:00 +21°C° 1.5 mm 7 mps 751 mmHg 88%
    13:00 +21°C° 1.5 mm 7 mps 751 mmHg 89%
    14:00 +21°C° 1.5 mm 7 mps 751 mmHg 90%
    15:00 +21°C° 0.3 mm 6 mps 751 mmHg 88%
    16:00 +21°C° 0.3 mm 5 mps 752 mmHg 86%
    17:00 +21°C° 0.3 mm 4 mps 752 mmHg 84%
    18:00 +20°C° 0 mm 4 mps 753 mmHg 85%
    19:00 +19°C° 0 mm 4 mps 753 mmHg 87%
    20:00 +18°C° 0 mm 4 mps 754 mmHg 89%
    21:00 +17°C° 0 mm 3 mps 754 mmHg 89%
    22:00 +16°C° 0 mm 2 mps 754 mmHg 89%
    23:00 +16°C° 0 mm 2 mps 754 mmHg 88%

    22 September, Sunday

    Time Temperature Precipitation Wind Pressure Humidity
    00:00 +16°C° 0 mm 1 mps 755 mmHg 89%
    01:00 +16°C° 0 mm 1 mps 755 mmHg 90%
    02:00 +15°C° 0 mm 1 mps 755 mmHg 90%
    03:00 +15°C° 0 mm 1 mps 755 mmHg 90%
    04:00 +15°C° 0 mm 1 mps 755 mmHg 91%
    05:00 +15°C° 0 mm 1 mps 756 mmHg 91%
    06:00 +17°C° 0 mm 2 mps 756 mmHg 83%
    07:00 +18°C° 0 mm 2 mps 757 mmHg 76%
    08:00 +19°C° 0 mm 2 mps 757 mmHg 68%
    09:00 +21°C° 0 mm 2 mps 757 mmHg 61%
    10:00 +22°C° 0 mm 3 mps 757 mmHg 53%
    11:00 +24°C° 0 mm 3 mps 758 mmHg 46%
    12:00 +25°C° 0 mm 3 mps 757 mmHg 45%
    13:00 +25°C° 0 mm 4 mps 757 mmHg 44%
    14:00 +25°C° 0 mm 5 mps 757 mmHg 43%
    15:00 +23°C° 0 mm 5 mps 757 mmHg 47%
    16:00 +22°C° 0 mm 5 mps 758 mmHg 52%
    17:00 +21°C° 0 mm 5 mps 758 mmHg 57%
    18:00 +20°C° 0 mm 5 mps 758 mmHg 63%
    19:00 +19°C° 0 mm 4 mps 759 mmHg 68%
    20:00 +17°C° 0 mm 4 mps 759 mmHg 74%
    21:00 +17°C° 0 mm 4 mps 759 mmHg 77%
    22:00 +17°C° 0 mm 3 mps 760 mmHg 80%
    23:00 +16°C° 0 mm 3 mps 760 mmHg 83%

    23 September, Monday

    Time Temperature Precipitation Wind Pressure Humidity
    00:00 +16°C° 0 mm 3 mps 759 mmHg 85%
    01:00 +15°C° 0 mm 2 mps 759 mmHg 86%
    02:00 +15°C° 0 mm 2 mps 759 mmHg 88%
    03:00 +15°C° 0 mm 2 mps 759 mmHg 87%
    04:00 +15°C° 0 mm 2 mps 759 mmHg 87%
    05:00 +14°C° 0 mm 2 mps 759 mmHg 87%
    06:00 +16°C° 0 mm 2 mps 759 mmHg 78%
    07:00 +17°C° 0 mm 2 mps 760 mmHg 69%
    08:00 +19°C° 0 mm 3 mps 760 mmHg 59%
    09:00 +21°C° 0 mm 2 mps 760 mmHg 51%
    10:00 +24°C° 0 mm 2 mps 760 mmHg 44%
    11:00 +26°C° 0 mm 2 mps 760 mmHg 36%
    12:00 +26°C° 0 mm 2 mps 759 mmHg 34%
    13:00 +27°C° 0 mm 3 mps 759 mmHg 31%
    14:00 +28°C° 0 mm 3 mps 758 mmHg 29%
    15:00 +27°C° 0 mm 3 mps 758 mmHg 32%
    16:00 +26°C° 0 mm 4 mps 758 mmHg 36%
    17:00 +25°C° 0 mm 4 mps 758 mmHg 39%
    18:00 +22°C° 0 mm 4 mps 758 mmHg 45%
    19:00 +21°C° 0 mm 4 mps 759 mmHg 51%
    20:00 +19°C° 0 mm 4 mps 759 mmHg 56%
    21:00 +18°C° 0 mm 3 mps 759 mmHg 59%
    22:00 +18°C° 0 mm 3 mps 759 mmHg 63%
    23:00 +17°C° 0 mm 3 mps 758 mmHg 66%
    Show more